Weather History for Provo, UT

Change the Weather History Date:

Sunday, February 10, 2013

  Actual Average Record
Temperature  
Mean Temperature 24 °F -  
Max Temperature 28 °F 38 °F 53 °F (1987)
Min Temperature 21 °F 22 °F 2 °F (1985)
Degree Days  
Heating Degree Days 40    
Moisture  
Dew Point 21 °F    
Average Humidity 88    
Maximum Humidity 93    
Minimum Humidity 80    
Precipitation  
Precipitation 0.01 in - - ()
Sea Level Pressure  
Sea Level Pressure 29.93 in    
Wind  
Wind Speed 6 mph (West)    
Max Wind Speed 13 mph    
Max Gust Speed -    
Visibility 7 miles    
Events Snow    
Averages and records for this station are not official NWS values.
T = Trace of Precipitation, MM = Missing Value Source: NWS Daily Summary

Daily Weather History Graph

Daily Weather History Graph

Search for Another Location

Airport:

Trip Planner

Search our weather history database for the weather conditions in past years. The results will help you decide how hot, cold, wet, or windy it might be!

Date:

Astronomy

Feb. 10, 2013 Rise Set
Actual Time 7:25 AM MST 5:56 PM MST
Civil Twilight 6:57 AM MST 6:25 PM MST
Nautical Twilight 6:25 AM MST 6:57 PM MST
Astronomical Twilight 5:54 AM MST 7:28 PM MST
Moon 7:17 AM MST (2/10) 6:52 PM MST (2/10)
Length of Visible Light 11h 27m
Length of Day
10h 31m
New Moon, 0% of the Moon is Illuminated
Feb 10
New Moon
Feb 17
First Quarter
Feb 25
Full
Mar 4
Last Quarter
Mar 11
New

Hourly Weather History & Observations

Time (MST) Temp. Windchill Dew Point Humidity Pressure Visibility Wind Dir Wind Speed Gust Speed Precip Events Conditions
12:15 AM 26.6 °F 16.2 °F 24.8 °F 93% 29.87 in 9.0 mi West 11.5 mph - N/A   Mostly Cloudy
12:35 AM 26.6 °F 16.2 °F 24.8 °F 93% 29.88 in 10.0 mi West 11.5 mph - N/A   Overcast
12:55 AM 26.6 °F 18.2 °F 24.8 °F 93% 29.88 in 9.0 mi West 8.1 mph - N/A   Overcast
1:15 AM 26.6 °F 21.2 °F 24.8 °F 93% 29.88 in 3.0 mi West 4.6 mph - N/A   Overcast
1:35 AM 26.6 °F - 24.8 °F 93% 29.88 in 3.0 mi Calm Calm - N/A   Overcast
1:55 AM 26.6 °F - 24.8 °F 93% 29.88 in 2.5 mi Calm Calm - N/A   Overcast
2:15 AM 26.6 °F 22.6 °F 24.8 °F 93% 29.88 in 2.5 mi NW 3.5 mph - N/A   Overcast
2:35 AM 26.6 °F 19.1 °F 24.8 °F 93% 29.88 in 3.0 mi WSW 6.9 mph - 0.01 in   Overcast
2:55 AM 24.8 °F 16.1 °F 23.0 °F 93% 29.88 in 10.0 mi WSW 8.1 mph - 0.01 in   Overcast
3:15 AM 24.8 °F 16.1 °F 21.2 °F 86% 29.88 in 9.0 mi WSW 8.1 mph - N/A   Overcast
3:55 AM 23.0 °F 13.9 °F 19.4 °F 86% 29.87 in 10.0 mi WSW 8.1 mph - N/A   Overcast
4:15 AM 23.0 °F 13.9 °F 19.4 °F 86% 29.87 in 4.0 mi West 8.1 mph - N/A   Overcast
4:35 AM 23.0 °F 14.7 °F 19.4 °F 86% 29.87 in 2.0 mi West 6.9 mph - N/A   Overcast
4:55 AM 23.0 °F 15.8 °F 19.4 °F 86% 29.87 in 5.0 mi West 5.8 mph - N/A   Scattered Clouds
5:15 AM 23.0 °F 17.0 °F 19.4 °F 86% 29.88 in 9.0 mi WSW 4.6 mph - N/A   Mostly Cloudy
5:35 AM 23.0 °F 17.0 °F 21.2 °F 93% 29.88 in 10.0 mi West 4.6 mph - N/A   Overcast
5:55 AM 23.0 °F 17.0 °F 21.2 °F 93% 29.88 in 10.0 mi SW 4.6 mph - N/A   Overcast
6:15 AM 23.0 °F - 19.4 °F 86% 29.89 in 5.0 mi Calm Calm - N/A   Mostly Cloudy
6:35 AM 23.0 °F - 19.4 °F 86% 29.89 in 10.0 mi Calm Calm - N/A   Scattered Clouds
6:55 AM 23.0 °F - 21.2 °F 93% 29.89 in 5.0 mi Calm Calm - N/A Snow Light Snow
7:50 AM 21.2 °F - 19.4 °F 93% 29.90 in 2.5 mi Calm Calm - N/A Snow Light Snow
8:47 AM 24.8 °F - 21.2 °F 86% 29.92 in 2.5 mi Calm Calm - N/A Snow Light Snow
9:50 AM 24.8 °F - 21.2 °F 86% 29.94 in 2.5 mi Calm Calm - N/A Snow Light Snow
10:09 AM 24.8 °F 20.5 °F 19.4 °F 80% 29.94 in 7.0 mi SW 3.5 mph - N/A   Overcast
10:47 AM 24.8 °F 20.5 °F 23.0 °F 93% 29.96 in 6.0 mi Variable 3.5 mph - N/A   Overcast
11:50 AM 26.6 °F 21.2 °F 21.2 °F 80% 29.96 in 7.0 mi Variable 4.6 mph - N/A   Mostly Cloudy
12:55 PM 26.6 °F 22.6 °F 21.2 °F 80% 29.94 in 8.0 mi Variable 3.5 mph - N/A   Mostly Cloudy
1:50 PM 28.4 °F 24.6 °F 23.0 °F 80% 29.93 in 10.0 mi Variable 3.5 mph - N/A   Mostly Cloudy
2:50 PM 26.6 °F 21.2 °F 21.2 °F 80% 29.93 in 8.0 mi WSW 4.6 mph - N/A   Mostly Cloudy
3:50 PM 26.6 °F 22.6 °F 24.8 °F 93% 29.94 in 6.0 mi WSW 3.5 mph - N/A Snow Light Snow
4:50 PM 26.6 °F - 23.0 °F 86% 29.95 in 4.0 mi Calm Calm - N/A Snow Light Snow
6:50 PM 24.8 °F 14.0 °F 19.4 °F 80% 29.97 in 6.0 mi WNW 11.5 mph - N/A   Mostly Cloudy
7:50 PM 24.8 °F 14.0 °F 19.4 °F 80% 29.97 in 8.0 mi WNW 11.5 mph - N/A   Mostly Cloudy
8:50 PM 24.8 °F 14.0 °F 21.2 °F 86% 29.99 in 8.0 mi WNW 11.5 mph - N/A   Mostly Cloudy
9:15 PM 24.8 °F 13.4 °F 21.2 °F 86% 29.99 in 10.0 mi NW 12.7 mph - N/A   Overcast
9:35 PM 24.8 °F 14.6 °F 21.2 °F 86% 30.00 in 10.0 mi WNW 10.4 mph - N/A   Overcast
9:55 PM 24.8 °F 16.9 °F 19.4 °F 80% 30.00 in 10.0 mi NNW 6.9 mph - N/A   Overcast
10:15 PM 23.0 °F 14.7 °F 19.4 °F 86% 30.00 in 10.0 mi NW 6.9 mph - N/A   Overcast
10:35 PM 23.0 °F 15.8 °F 19.4 °F 86% 30.01 in 10.0 mi NW 5.8 mph - N/A   Overcast
10:55 PM 23.0 °F 18.4 °F 19.4 °F 86% 30.01 in 10.0 mi NNW 3.5 mph - N/A   Mostly Cloudy
11:15 PM 21.2 °F 14.9 °F 19.4 °F 93% 30.01 in 10.0 mi NW 4.6 mph - N/A   Partly Cloudy
11:35 PM 21.2 °F 13.6 °F 19.4 °F 93% 30.02 in 10.0 mi WSW 5.8 mph - N/A   Partly Cloudy
11:55 PM 21.2 °F 14.9 °F 17.6 °F 86% 30.02 in 10.0 mi West 4.6 mph - N/A   Partly Cloudy